^^
Station Historical Data
 
Daily Summary for June 25, 2018 Units:  English    Metric   Both
« Previous Day
Next Day »
Daily Weekly Monthly Yearly Custom
  Current: High: Low: Average:
Temperature: 93.1 °F TemperatureF °F 69.0 °F 76.4 °F
Dew Point: 74.5 °F DewpointF °F 67.2 °F 70 °F
Humidity: 55% Humidity% 55% 81%
Wind Speed: 2.9mph WindSpeedMPHmph 0.0mph 0.4mph
Wind Gust: 4.0mph WindSpeedGustMPHmph - -
WindSE - - ESE
Pressure: 30.19 in PressureIn in 30.12 in -
Precipitation: 0.00 in      
Historical Graphs
 
 
Tabular Data for June 25, 2018
Time Temperature Dew Point Pressure Wind Wind Speed Wind Gust Humidity Rainfall Rate (Hourly) solar Conditions
TemperatureF °F DewpointF °F PressureIn in Calm     Humidity% HourlyPrecipIn in SoftwareType W/m2 Conditions
00:04 72.8 °F 68.0 °F 30.12 in ESE 0.1 mph 1.0 mph 85% 0.00 in WeatherDisplay:10.37 W/m2 CLR
00:09 72.9 °F 67.8 °F 30.12 in Calm     84% 0.00 in WeatherDisplay:10.37 W/m2 CLR
00:14 73.0 °F 67.9 °F 30.13 in Calm   1.1 mph 84% 0.00 in WeatherDisplay:10.37 W/m2 CLR
00:19 73.0 °F 67.9 °F 30.13 in Calm     84% 0.00 in WeatherDisplay:10.37 W/m2 CLR
00:24 73.0 °F 67.9 °F 30.13 in ESE 0.2 mph 1.1 mph 84% 0.00 in WeatherDisplay:10.37 W/m2 CLR
00:29 73.0 °F 67.9 °F 30.13 in Calm   2.3 mph 84% 0.00 in WeatherDisplay:10.37 W/m2 CLR
00:34 72.9 °F 68.1 °F 30.14 in ESE 0.4 mph 3.5 mph 85% 0.00 in WeatherDisplay:10.37 W/m2 CLR
00:39 72.9 °F 68.1 °F 30.14 in Calm   3.5 mph 85% 0.00 in WeatherDisplay:10.37 W/m2 CLR
00:44 72.8 °F 68.0 °F 30.14 in Calm     85% 0.00 in WeatherDisplay:10.37 W/m2 CLR
00:49 72.7 °F 67.9 °F 30.14 in Calm     85% 0.00 in WeatherDisplay:10.37 W/m2 CLR
00:54 72.6 °F 68.2 °F 30.14 in Calm     86% 0.00 in WeatherDisplay:10.37 W/m2 CLR
00:59 72.4 °F 68.0 °F 30.14 in Calm     86% 0.00 in WeatherDisplay:10.37 W/m2 CLR
01:04 72.3 °F 67.9 °F 30.14 in Calm     86% 0.00 in WeatherDisplay:10.37 W/m2 CLR
01:09 72.2 °F 68.1 °F 30.14 in Calm     87% 0.00 in WeatherDisplay:10.37 W/m2 CLR
01:14 72.1 °F 68.0 °F 30.14 in ESE 0.1 mph 2.3 mph 87% 0.00 in WeatherDisplay:10.37 W/m2 CLR
01:19 72.1 °F 68.0 °F 30.13 in ESE 0.4 mph 2.0 mph 87% 0.00 in WeatherDisplay:10.37 W/m2 CLR
01:24 72.2 °F 68.1 °F 30.14 in Calm     87% 0.00 in WeatherDisplay:10.37 W/m2 CLR
01:29 72.2 °F 68.1 °F 30.13 in Calm     87% 0.00 in WeatherDisplay:10.37 W/m2 CLR
01:34 72.2 °F 68.4 °F 30.14 in Calm     88% 0.00 in WeatherDisplay:10.37 W/m2 CLR
01:39 72.2 °F 68.4 °F 30.14 in Calm     88% 0.00 in WeatherDisplay:10.37 W/m2 CLR
01:44 72.2 °F 68.4 °F 30.13 in Calm     88% 0.00 in WeatherDisplay:10.37 W/m2 CLR
01:49 72.1 °F 68.3 °F 30.14 in Calm     88% 0.00 in WeatherDisplay:10.37 W/m2 CLR
01:54 72.1 °F 68.3 °F 30.13 in ESE 0.1 mph   88% 0.00 in WeatherDisplay:10.37 W/m2 CLR
01:59 72.2 °F 68.8 °F 30.13 in Calm     89% 0.00 in WeatherDisplay:10.37 W/m2 CLR
02:04 72.2 °F 68.8 °F 30.13 in Calm     89% 0.00 in WeatherDisplay:10.37 W/m2 CLR
02:09 72.2 °F 68.8 °F 30.13 in Calm     89% 0.00 in WeatherDisplay:10.37 W/m2 CLR
02:14 72.2 °F 68.8 °F 30.12 in Calm   2.3 mph 89% 0.00 in WeatherDisplay:10.37 W/m2 CLR
02:19 72.2 °F 68.8 °F 30.12 in Calm     89% 0.00 in WeatherDisplay:10.37 W/m2 CLR
02:24 72.2 °F 68.8 °F 30.12 in Calm     89% 0.00 in WeatherDisplay:10.37 W/m2 CLR
02:29 72.1 °F 68.7 °F 30.12 in Calm     89% 0.00 in WeatherDisplay:10.37 W/m2 CLR
02:34 72.1 °F 69.0 °F 30.12 in Calm     90% 0.00 in WeatherDisplay:10.37 W/m2 CLR
02:39 72.1 °F 69.0 °F 30.12 in Calm     90% 0.00 in WeatherDisplay:10.37 W/m2 CLR
02:44 72.1 °F 69.0 °F 30.12 in Calm     90% 0.00 in WeatherDisplay:10.37 W/m2 CLR
02:49 72.0 °F 68.9 °F 30.12 in Calm     90% 0.00 in WeatherDisplay:10.37 W/m2 CLR
02:54 71.9 °F 68.8 °F 30.12 in Calm     90% 0.00 in WeatherDisplay:10.37 W/m2 CLR
02:59 72.0 °F 68.9 °F 30.12 in Calm     90% 0.00 in WeatherDisplay:10.37 W/m2 CLR
03:04 72.1 °F 68.7 °F 30.12 in Calm     89% 0.00 in WeatherDisplay:10.37 W/m2 CLR
03:09 72.1 °F 68.7 °F 30.13 in Calm   1.1 mph 89% 0.00 in WeatherDisplay:10.37 W/m2 CLR
03:14 72.2 °F 68.8 °F 30.13 in Calm     89% 0.00 in WeatherDisplay:10.37 W/m2 CLR
03:19 72.3 °F 68.5 °F 30.13 in Calm     88% 0.00 in WeatherDisplay:10.37 W/m2 CLR
03:24 72.4 °F 68.6 °F 30.13 in Calm     88% 0.00 in WeatherDisplay:10.37 W/m2 CLR
03:29 72.4 °F 68.6 °F 30.14 in Calm     88% 0.00 in WeatherDisplay:10.37 W/m2 CLR
03:34 72.4 °F 68.6 °F 30.13 in Calm     88% 0.00 in WeatherDisplay:10.37 W/m2 CLR
03:39 72.5 °F 68.7 °F 30.14 in Calm     88% 0.00 in WeatherDisplay:10.37 W/m2 CLR
03:44 72.5 °F 68.7 °F 30.14 in Calm     88% 0.00 in WeatherDisplay:10.37 W/m2 CLR
03:49 72.5 °F 68.7 °F 30.14 in Calm     88% 0.00 in WeatherDisplay:10.37 W/m2 CLR
03:54 72.5 °F 68.7 °F 30.14 in Calm     88% 0.00 in WeatherDisplay:10.37 W/m2 CLR
03:59 72.4 °F 68.6 °F 30.14 in Calm     88% 0.00 in WeatherDisplay:10.37 W/m2 CLR
04:04 72.4 °F 68.6 °F 30.14 in Calm     88% 0.00 in WeatherDisplay:10.37 W/m2 CLR
04:09 72.3 °F 68.5 °F 30.15 in Calm     88% 0.00 in WeatherDisplay:10.37 W/m2 CLR
04:14 72.2 °F 68.4 °F 30.15 in Calm     88% 0.00 in WeatherDisplay:10.37 W/m2 CLR
04:19 72.1 °F 68.7 °F 30.15 in Calm     89% 0.00 in WeatherDisplay:10.37 W/m2 CLR
04:24 72.1 °F 68.7 °F 30.16 in Calm     89% 0.00 in WeatherDisplay:10.37 W/m2 CLR
04:29 71.9 °F 68.5 °F 30.16 in Calm     89% 0.00 in WeatherDisplay:10.37 W/m2 CLR
04:34 71.8 °F 68.4 °F 30.16 in Calm     89% 0.00 in WeatherDisplay:10.37 W/m2 CLR
04:39 71.6 °F 68.2 °F 30.16 in Calm     89% 0.00 in WeatherDisplay:10.37 W/m2 CLR
04:44 71.5 °F 68.1 °F 30.16 in Calm     89% 0.00 in WeatherDisplay:10.37 W/m2 CLR
04:49 71.3 °F 68.2 °F 30.16 in Calm     90% 0.00 in WeatherDisplay:10.37 W/m2 CLR
04:54 71.1 °F 68.0 °F 30.16 in Calm     90% 0.00 in WeatherDisplay:10.37 W/m2 CLR
04:59 70.9 °F 67.8 °F 30.16 in Calm     90% 0.00 in WeatherDisplay:10.37 W/m2 CLR
05:04 70.8 °F 68.0 °F 30.17 in Calm     91% 0.00 in WeatherDisplay:10.37 W/m2 CLR
05:09 70.5 °F 67.7 °F 30.17 in Calm     91% 0.00 in WeatherDisplay:10.37 W/m2 CLR
05:14 70.4 °F 67.6 °F 30.17 in Calm     91% 0.00 in WeatherDisplay:10.37 W/m2 CLR
05:19 70.2 °F 67.4 °F 30.17 in Calm     91% 0.00 in WeatherDisplay:10.37 W/m2 CLR
05:24 70.1 °F 67.7 °F 30.17 in Calm     92% 0.00 in WeatherDisplay:10.37 W/m2 CLR
05:29 69.9 °F 67.5 °F 30.17 in Calm     92% 0.00 in WeatherDisplay:10.37 W/m2 CLR
05:34 69.9 °F 67.5 °F 30.18 in Calm     92% 0.00 in WeatherDisplay:10.37 W/m2 CLR
05:39 69.8 °F 67.7 °F 30.18 in Calm     93% 0.00 in WeatherDisplay:10.37 W/m2 CLR
05:44 69.6 °F 67.5 °F 30.18 in Calm     93% 0.00 in WeatherDisplay:10.37 W/m2 CLR
05:49 69.5 °F 67.4 °F 30.18 in Calm     93% 0.00 in WeatherDisplay:10.37 W/m2 CLR
05:54 69.4 °F 67.3 °F 30.18 in Calm     93% 0.00 in WeatherDisplay:10.37 W/m2 CLR
05:59 69.3 °F 67.2 °F 30.19 in Calm     93% 0.00 in WeatherDisplay:10.37 W/m2 CLR
06:04 69.3 °F 67.5 °F 30.19 in Calm     94% 0.00 in WeatherDisplay:10.37 W/m2 CLR
06:09 69.3 °F 67.5 °F 30.19 in Calm     94% 0.00 in WeatherDisplay:10.37 W/m2 CLR
06:14 69.2 °F 67.4 °F 30.19 in Calm     94% 0.00 in WeatherDisplay:10.37 W/m2 CLR
06:19 69.2 °F 67.4 °F 30.19 in Calm     94% 0.00 in WeatherDisplay:10.37 W/m2 CLR
06:24 69.2 °F 67.4 °F 30.19 in Calm     94% 0.00 in WeatherDisplay:10.37 W/m2 CLR
06:29 69.1 °F 67.3 °F 30.19 in Calm     94% 0.00 in WeatherDisplay:10.37 W/m2 CLR
06:34 69.1 °F 67.3 °F 30.19 in Calm     94% 0.00 in WeatherDisplay:10.37 W/m2 CLR
06:39 69.0 °F 67.2 °F 30.19 in Calm     94% 0.00 in WeatherDisplay:10.37 W/m2 CLR
06:44 69.1 °F 67.6 °F 30.20 in Calm     95% 0.00 in WeatherDisplay:10.37 W/m2 CLR
06:49 69.2 °F 67.7 °F 30.19 in Calm     95% 0.00 in WeatherDisplay:10.37 W/m2 CLR
06:54 69.3 °F 67.8 °F 30.20 in Calm     95% 0.00 in WeatherDisplay:10.37 W/m2 CLR
06:59 69.4 °F 67.9 °F 30.20 in Calm     95% 0.00 in WeatherDisplay:10.37 W/m2 CLR
07:04 69.6 °F 68.1 °F 30.20 in Calm     95% 0.00 in WeatherDisplay:10.37 W/m2 CLR
07:09 69.9 °F 68.4 °F 30.20 in Calm     95% 0.00 in WeatherDisplay:10.37 W/m2 CLR
07:14 70.2 °F 68.7 °F 30.20 in ESE 0.1 mph 1.0 mph 95% 0.00 in WeatherDisplay:10.37 W/m2 CLR
07:19 70.6 °F 69.1 °F 30.20 in Calm     95% 0.00 in WeatherDisplay:10.37 W/m2 CLR
07:24 70.9 °F 69.4 °F 30.20 in Calm     95% 0.00 in WeatherDisplay:10.37 W/m2 CLR
07:29 71.2 °F 69.7 °F 30.21 in Calm     95% 0.00 in WeatherDisplay:10.37 W/m2 CLR
07:34 71.7 °F 69.9 °F 30.21 in ESE 0.4 mph 2.3 mph 94% 0.00 in WeatherDisplay:10.37 W/m2 CLR
07:39 72.3 °F 70.2 °F 30.21 in ESE 0.4 mph 3.5 mph 93% 0.00 in WeatherDisplay:10.37 W/m2 CLR
07:44 72.8 °F 70.3 °F 30.21 in Calm   1.1 mph 92% 0.00 in WeatherDisplay:10.37 W/m2 CLR
07:49 73.4 °F 70.6 °F 30.21 in ESE 0.1 mph 1.1 mph 91% 0.00 in WeatherDisplay:10.37 W/m2 CLR
07:54 73.9 °F 70.5 °F 30.21 in ESE 0.3 mph 3.5 mph 89% 0.00 in WeatherDisplay:10.37 W/m2 CLR
07:59 74.3 °F 70.8 °F 30.21 in Calm   1.1 mph 89% 0.00 in WeatherDisplay:10.37 W/m2 CLR
08:04 74.6 °F 70.8 °F 30.21 in ESE 0.6 mph 3.5 mph 88% 0.00 in WeatherDisplay:10.37 W/m2 CLR
08:09 74.7 °F 70.9 °F 30.21 in ESE 0.8 mph 3.5 mph 88% 0.00 in WeatherDisplay:10.37 W/m2 CLR
08:14 75.0 °F 71.2 °F 30.21 in Calm     88% 0.00 in WeatherDisplay:10.37 W/m2 CLR
08:19 75.5 °F 71.4 °F 30.21 in Calm   1.1 mph 87% 0.00 in WeatherDisplay:10.37 W/m2 CLR
08:24 75.9 °F 71.4 °F 30.21 in ESE 2.2 mph 6.9 mph 86% 0.00 in WeatherDisplay:10.37 W/m2 CLR
08:29 76.5 °F 72.0 °F 30.21 in ESE 0.3 mph 3.5 mph 86% 0.00 in WeatherDisplay:10.37 W/m2 CLR
08:34 77.1 °F 72.2 °F 30.21 in ESE 1.1 mph 1.1 mph 85% 0.00 in WeatherDisplay:10.37 W/m2 CLR
08:39 77.6 °F 72.4 °F 30.21 in ESE 0.4 mph 3.5 mph 84% 0.00 in WeatherDisplay:10.37 W/m2 CLR
08:44 78.1 °F 72.9 °F 30.21 in Calm   3.5 mph 84% 0.00 in WeatherDisplay:10.37 W/m2 CLR
08:49 78.4 °F 72.8 °F 30.21 in ESE 0.1 mph   83% 0.00 in WeatherDisplay:10.37 W/m2 CLR
08:54 78.7 °F 72.7 °F 30.21 in ESE 0.9 mph 1.1 mph 82% 0.00 in WeatherDisplay:10.37 W/m2 CLR
08:59 79.3 °F 73.7 °F 30.21 in Calm     83% 0.00 in WeatherDisplay:10.37 W/m2 CLR
09:04 79.8 °F 73.4 °F 30.21 in ESE 0.3 mph   81% 0.00 in WeatherDisplay:10.37 W/m2 CLR
09:09 80.4 °F 73.3 °F 30.21 in ESE 0.7 mph 3.5 mph 79% 0.00 in WeatherDisplay:10.37 W/m2 CLR
09:14 80.9 °F 73.8 °F 30.21 in ESE 1.3 mph 4.0 mph 79% 0.00 in WeatherDisplay:10.37 W/m2 CLR
09:19 81.3 °F 73.4 °F 30.21 in ESE 0.8 mph 3.5 mph 77% 0.00 in WeatherDisplay:10.37 W/m2 CLR
09:24 81.8 °F 73.9 °F 30.21 in Calm     77% 0.00 in WeatherDisplay:10.37 W/m2 CLR
09:29 82.3 °F 74.0 °F 30.21 in Calm     76% 0.00 in WeatherDisplay:10.37 W/m2 CLR
09:34 82.4 °F 73.7 °F 30.21 in Calm   3.5 mph 75% 0.00 in WeatherDisplay:10.37 W/m2 CLR
09:39 82.8 °F 74.1 °F 30.21 in ESE 0.3 mph 2.0 mph 75% 0.00 in WeatherDisplay:10.37 W/m2 CLR
09:44 83.4 °F 74.2 °F 30.21 in ESE 0.5 mph 9.2 mph 74% 0.00 in WeatherDisplay:10.37 W/m2 CLR
09:49 83.9 °F 74.3 °F 30.21 in Calm     73% 0.00 in WeatherDisplay:10.37 W/m2 CLR
09:54 84.5 °F 74.9 °F 30.21 in Calm   3.5 mph 73% 0.00 in WeatherDisplay:10.37 W/m2 CLR
09:59 84.7 °F 74.3 °F 30.21 in Calm     71% 0.00 in WeatherDisplay:10.37 W/m2 CLR
10:04 85.0 °F 73.7 °F 30.21 in SSE 1.8 mph 3.5 mph 69% 0.00 in WeatherDisplay:10.37 W/m2 CLR
10:09 85.3 °F 73.5 °F 30.21 in ESE 1.9 mph 7.0 mph 68% 0.00 in WeatherDisplay:10.37 W/m2 CLR
10:14 85.6 °F 73.8 °F 30.21 in ESE 0.7 mph   68% 0.00 in WeatherDisplay:10.37 W/m2 CLR
10:19 86.1 °F 74.3 °F 30.21 in ESE 0.1 mph 3.5 mph 68% 0.00 in WeatherDisplay:10.37 W/m2 CLR
10:24 86.4 °F 74.6 °F 30.21 in North 1.8 mph 3.5 mph 68% 0.00 in WeatherDisplay:10.37 W/m2 CLR
10:29 86.3 °F 74.5 °F 30.21 in ESE 2.9 mph 3.5 mph 68% 0.00 in WeatherDisplay:10.37 W/m2 CLR
10:34 86.1 °F 74.3 °F 30.21 in ESE 0.8 mph 3.5 mph 68% 0.00 in WeatherDisplay:10.37 W/m2 CLR
10:39 85.9 °F 74.5 °F 30.21 in Calm     69% 0.00 in WeatherDisplay:10.37 W/m2 CLR
10:44 85.9 °F 74.5 °F 30.21 in Calm   3.5 mph 69% 0.00 in WeatherDisplay:10.37 W/m2 CLR
10:49 86.3 °F 74.9 °F 30.21 in ESE 0.5 mph 7.0 mph 69% 0.00 in WeatherDisplay:10.37 W/m2 CLR
10:54 86.5 °F 73.8 °F 30.21 in ESE 2.5 mph 4.6 mph 66% 0.00 in WeatherDisplay:10.37 W/m2 CLR
10:59 86.6 °F 73.9 °F 30.21 in ESE 0.9 mph 6.9 mph 66% 0.00 in WeatherDisplay:10.37 W/m2 CLR
11:04 86.8 °F 73.6 °F 30.21 in ESE 5.5 mph 5.0 mph 65% 0.00 in WeatherDisplay:10.37 W/m2 CLR
11:09 87.0 °F 73.8 °F 30.20 in ESE 0.1 mph 1.1 mph 65% 0.00 in WeatherDisplay:10.37 W/m2 CLR
11:14 87.1 °F 74.4 °F 30.20 in ESE 0.4 mph 2.3 mph 66% 0.00 in WeatherDisplay:10.37 W/m2 CLR
11:19 87.8 °F 75.0 °F 30.20 in Calm   3.5 mph 66% 0.00 in WeatherDisplay:10.37 W/m2 CLR
11:24 88.7 °F 75.0 °F 30.20 in Calm     64% 0.00 in WeatherDisplay:10.37 W/m2 CLR
11:29 89.0 °F 73.3 °F 30.20 in Calm     60% 0.00 in WeatherDisplay:10.37 W/m2 CLR
11:34 89.2 °F 73.5 °F 30.20 in Calm     60% 0.00 in WeatherDisplay:10.37 W/m2 CLR
11:39 89.6 °F 73.9 °F 30.20 in Calm     60% 0.00 in WeatherDisplay:10.37 W/m2 CLR
11:44 89.8 °F 73.0 °F 30.20 in ESE 0.9 mph 5.8 mph 58% 0.00 in WeatherDisplay:10.37 W/m2 CLR
11:49 90.1 °F 73.3 °F 30.20 in ESE 1.0 mph 3.5 mph 58% 0.00 in WeatherDisplay:10.37 W/m2 CLR
11:54 90.5 °F 74.2 °F 30.20 in Calm     59% 0.00 in WeatherDisplay:10.37 W/m2 CLR
11:59 90.9 °F 74.1 °F 30.20 in ESE 4.2 mph 4.0 mph 58% 0.00 in WeatherDisplay:10.37 W/m2 CLR
12:04 90.8 °F 73.5 °F 30.20 in SE 0.2 mph 2.3 mph 57% 0.00 in WeatherDisplay:10.37 W/m2 CLR
12:09 91.1 °F 74.3 °F 30.20 in Calm     58% 0.00 in WeatherDisplay:10.37 W/m2 CLR
12:14 91.1 °F 74.3 °F 30.20 in ESE 1.0 mph 5.0 mph 58% 0.00 in WeatherDisplay:10.37 W/m2 CLR
12:19 91.2 °F 74.9 °F 30.20 in SE 2.9 mph 5.0 mph 59% 0.00 in WeatherDisplay:10.37 W/m2 CLR
12:24 91.5 °F 74.6 °F 30.20 in Calm   1.1 mph 58% 0.00 in WeatherDisplay:10.37 W/m2 CLR
12:29 91.8 °F 75.4 °F 30.20 in Calm     59% 0.00 in WeatherDisplay:10.37 W/m2 CLR
12:34 92.0 °F 75.1 °F 30.19 in Calm     58% 0.00 in WeatherDisplay:10.37 W/m2 CLR
12:39 92.4 °F 76.5 °F 30.19 in ESE 2.0 mph 4.0 mph 60% 0.00 in WeatherDisplay:10.37 W/m2 CLR
12:44 92.6 °F 74.6 °F 30.19 in ESE 3.8 mph 6.9 mph 56% 0.00 in WeatherDisplay:10.37 W/m2 CLR
12:49 92.5 °F 74.5 °F 30.19 in Calm   4.6 mph 56% 0.00 in WeatherDisplay:10.37 W/m2 CLR
12:54 92.9 °F 74.9 °F 30.19 in ESE 1.1 mph 3.0 mph 56% 0.00 in WeatherDisplay:10.37 W/m2 CLR
12:59 93.0 °F 75.0 °F 30.19 in ESE 2.7 mph 1.1 mph 56% 0.00 in WeatherDisplay:10.37 W/m2 CLR
13:04 93.1 °F 74.5 °F 30.19 in SE 2.9 mph 4.0 mph 55% 0.00 in WeatherDisplay:10.37 W/m2 CLR
Gayle H. Riggsbee Observatory (GHRO)
Compliments of Weather Underground - 1.5 mb